Weather History for Tomahawk, WI

Change the Weather History Date:

Friday, November 29, 2013

  Actual Average (KRHI) Record (KRHI)
Temperature  
Mean Temperature 13 °F 23 °F  
Max Temperature 23 °F 31 °F 57 °F (1998)
Min Temperature 3 °F 16 °F -15 °F (1976)
Degree Days  
Heating Degree Days 52 42  
Month to date heating degree days 999  
Since 1 July heating degree days 2092  
Cooling Degree Days 0 0  
Month to date cooling degree days 0  
Year to date cooling degree days 261  
Moisture  
Dew Point 11 °F    
Average Humidity 83    
Maximum Humidity 91    
Minimum Humidity 73    
Precipitation  
Precipitation 0.00 in 0.06 in 0.99 in (1991)
Month to date precipitation 1.78  
Year to date precipitation 29.90  
Snow  
Snow 0.00 in - 5.00 in (1918)
Month to date snowfall  
Since 1 July snowfall  
Since 1 September snowfall  
Snow Depth -    
Sea Level Pressure  
Sea Level Pressure 30.40 in    
Wind  
Wind Speed 1 mph (SSE)    
Max Wind Speed 8 mph    
Max Gust Speed -    
Visibility 9 miles    
Events Fog , Snow    
T = Trace of Precipitation, MM = Missing Value Source: NWS Daily Summary

Daily Weather History Graph

Daily Weather History Graph

Search for Another Location

Airport:

Trip Planner

Search our weather history database for the weather conditions in past years. The results will help you decide how hot, cold, wet, or windy it might be!

Date:

Astronomy

Nov. 29, 2013 Rise Set
Actual Time 7:16 AM CST 4:18 PM CST
Civil Twilight 6:43 AM CST 4:51 PM CST
Nautical Twilight 6:06 AM CST 5:28 PM CST
Astronomical Twilight 5:30 AM CST 6:04 PM CST
Moon 3:12 AM CST (11/29) 2:11 PM CST (11/29)
Length of Visible Light 10h 08m
Length of Day
9h 01m
Waning Crescent, 14% of the Moon is Illuminated
Nov 29
Waning Crescent
Dec 2
New
Dec 9
First Quarter
Dec 17
Full
Dec 25
Last Quarter

Hourly Weather History & Observations

Time (CST) Temp. Windchill Dew Point Humidity Pressure Visibility Wind Dir Wind Speed Gust Speed Precip Events Conditions
12:15 AM 4.6 °F - 1.4 °F 86% 30.42 in 7.0 mi Calm Calm - N/A   Overcast
12:35 AM 5.9 °F - 3.2 °F 89% 30.42 in 7.0 mi Calm Calm - N/A Snow Light Snow
12:55 AM 6.8 °F - 4.1 °F 89% 30.42 in 10.0 mi Calm Calm - N/A   Mostly Cloudy
1:15 AM 6.1 °F - 3.2 °F 88% 30.43 in 10.0 mi Calm Calm - N/A   Overcast
1:35 AM 4.6 °F - 1.4 °F 86% 30.43 in 10.0 mi Calm Calm - N/A   Overcast
1:55 AM 3.2 °F - -0.0 °F 86% 30.44 in 10.0 mi Calm Calm - N/A   Mostly Cloudy
2:15 AM 5.0 °F - 2.1 °F 88% 30.44 in 10.0 mi Calm Calm - N/A   Overcast
2:35 AM 5.2 °F - 2.3 °F 88% 30.45 in 10.0 mi Calm Calm - N/A   Overcast
2:55 AM 6.1 °F - 2.8 °F 87% 30.45 in 10.0 mi Calm Calm - N/A   Overcast
3:15 AM 4.1 °F - 0.9 °F 86% 30.44 in 10.0 mi Calm Calm - N/A   Overcast
3:35 AM 3.2 °F - -0.2 °F 86% 30.44 in 10.0 mi Calm Calm - N/A   Overcast
3:55 AM 3.9 °F - 0.5 °F 86% 30.45 in 10.0 mi Calm Calm - N/A   Overcast
4:15 AM 5.9 °F - 3.0 °F 88% 30.45 in 10.0 mi Calm Calm - N/A   Overcast
4:35 AM 5.9 °F - 3.0 °F 88% 30.46 in 10.0 mi Calm Calm - N/A   Overcast
4:55 AM 7.2 °F - 4.1 °F 87% 30.46 in 10.0 mi Calm Calm - N/A   Overcast
5:15 AM 8.2 °F - 5.5 °F 89% 30.47 in 10.0 mi Calm Calm - N/A   Overcast
5:35 AM 9.3 °F - 6.8 °F 89% 30.47 in 10.0 mi Calm Calm - N/A   Overcast
5:55 AM 9.7 °F - 7.2 °F 90% 30.48 in 10.0 mi Calm Calm - N/A   Overcast
6:15 AM 10.0 °F - 7.5 °F 90% 30.49 in 10.0 mi Calm Calm - N/A   Overcast
6:35 AM 10.2 °F - 7.5 °F 89% 30.49 in 10.0 mi Calm Calm - N/A   Overcast
6:55 AM 10.2 °F - 7.7 °F 90% 30.49 in 7.0 mi Calm Calm - N/A   Overcast
7:15 AM 10.4 °F - 8.1 °F 90% 30.49 in 7.0 mi Calm Calm - N/A   Overcast
7:35 AM 11.1 °F - 8.6 °F 90% 30.49 in 2.5 mi Calm Calm - N/A   Overcast
7:55 AM 11.8 °F - 9.5 °F 90% 30.50 in 0.5 mi Calm Calm - N/A Fog Light Freezing Fog
8:15 AM 12.2 °F - 10.0 °F 91% 30.51 in 0.2 mi Calm Calm - N/A Fog Light Freezing Fog
8:35 AM 12.2 °F - 10.0 °F 91% 30.51 in 0.8 mi Calm Calm - N/A Snow Light Snow
8:55 AM 12.7 °F - 10.4 °F 90% 30.51 in 4.0 mi Calm Calm - N/A   Overcast
9:15 AM 12.9 °F - 10.4 °F 90% 30.51 in 5.0 mi Calm Calm - N/A   Overcast
9:35 AM 13.1 °F - 10.9 °F 91% 30.51 in 7.0 mi Calm Calm - N/A   Mostly Cloudy
9:55 AM 13.5 °F - 11.1 °F 90% 30.50 in 7.0 mi Calm Calm - N/A   Scattered Clouds
10:15 AM 14.0 °F - 11.7 °F 90% 30.51 in 10.0 mi Calm Calm - N/A   Scattered Clouds
10:35 AM 14.9 °F - 12.7 °F 91% 30.51 in 10.0 mi Calm Calm - N/A   Scattered Clouds
10:55 AM 16.2 °F - 14.0 °F 91% 30.50 in 10.0 mi Calm Calm - N/A   Scattered Clouds
11:15 AM 16.9 °F - 14.7 °F 91% 30.49 in 10.0 mi Calm Calm - N/A   Clear
11:35 AM 17.4 °F - 15.3 °F 91% 30.48 in 10.0 mi Calm Calm - N/A   Clear
11:55 AM 18.1 °F - 16.0 °F 91% 30.46 in 10.0 mi Calm Calm - N/A   Scattered Clouds
12:15 PM 18.9 °F - 16.3 °F 90% 30.46 in 10.0 mi Calm Calm - N/A   Clear
12:35 PM 19.4 °F - 15.6 °F 85% 30.45 in 10.0 mi Calm Calm - N/A   Clear
12:55 PM 20.7 °F - 14.9 °F 78% 30.44 in 10.0 mi Calm Calm - N/A   Clear
1:15 PM 20.8 °F 16.0 °F 14.0 °F 75% 30.44 in 10.0 mi SSE 3.5 mph - N/A   Scattered Clouds
1:35 PM 21.0 °F 16.2 °F 13.6 °F 73% 30.42 in 10.0 mi South 3.5 mph - N/A   Overcast
1:55 PM 20.7 °F 14.2 °F 13.8 °F 75% 30.42 in 10.0 mi South 4.6 mph - N/A   Overcast
2:15 PM 21.0 °F 14.6 °F 14.0 °F 74% 30.41 in 10.0 mi SSE 4.6 mph - N/A   Overcast
2:35 PM 21.0 °F 16.2 °F 14.5 °F 76% 30.41 in 10.0 mi SSE 3.5 mph - N/A   Overcast
2:55 PM 21.2 °F - 14.4 °F 75% 30.39 in 10.0 mi Calm Calm - N/A   Overcast
3:15 PM 21.6 °F 14.0 °F 14.2 °F 73% 30.38 in 10.0 mi SE 5.8 mph - N/A   Overcast
3:35 PM 21.2 °F 16.4 °F 14.0 °F 74% 30.37 in 10.0 mi SE 3.5 mph - N/A   Scattered Clouds
3:55 PM 21.2 °F 16.4 °F 14.0 °F 74% 30.37 in 10.0 mi SE 3.5 mph - N/A   Clear
4:15 PM 21.0 °F - 14.4 °F 75% 30.37 in 10.0 mi Calm Calm - N/A   Clear
4:35 PM 20.3 °F - 14.0 °F 77% 30.36 in 10.0 mi Calm Calm - N/A   Clear
4:55 PM 20.7 °F - 14.5 °F 77% 30.36 in 10.0 mi Calm Calm - N/A   Clear
5:15 PM 20.5 °F - 14.5 °F 78% 30.35 in 10.0 mi Calm Calm - N/A   Clear
5:35 PM 20.7 °F 15.8 °F 14.7 °F 78% 30.34 in 10.0 mi ESE 3.5 mph - N/A   Clear
5:55 PM 20.1 °F 15.2 °F 14.5 °F 79% 30.33 in 10.0 mi SE 3.5 mph - N/A   Clear
6:15 PM 20.1 °F 13.6 °F 14.5 °F 79% 30.32 in 10.0 mi SE 4.6 mph - N/A   Clear
6:35 PM 20.3 °F 13.8 °F 14.7 °F 79% 30.31 in 10.0 mi SSE 4.6 mph - N/A   Clear
6:55 PM 20.3 °F 12.5 °F 14.9 °F 80% 30.31 in 10.0 mi SSE 5.8 mph - N/A   Clear
7:15 PM 20.3 °F 11.5 °F 14.9 °F 80% 30.29 in 10.0 mi SSE 6.9 mph - N/A   Clear
7:35 PM 20.1 °F - 14.9 °F 80% 30.30 in 10.0 mi Calm Calm - N/A   Clear
7:55 PM 19.9 °F 12.1 °F 14.9 °F 81% 30.29 in 10.0 mi SSE 5.8 mph - N/A   Clear
8:15 PM 20.8 °F 13.2 °F 15.6 °F 80% 30.28 in 10.0 mi SSE 5.8 mph - N/A   Mostly Cloudy
8:35 PM 21.2 °F 13.6 °F 15.8 °F 80% 30.27 in 10.0 mi SSE 5.8 mph - N/A   Overcast
8:55 PM 21.2 °F 11.7 °F 16.2 °F 81% 30.25 in 10.0 mi SSE 8.1 mph - N/A   Overcast
9:15 PM 21.2 °F 12.6 °F 15.8 °F 80% 30.24 in 10.0 mi SSE 6.9 mph - N/A   Overcast
9:35 PM 21.2 °F 14.9 °F 15.8 °F 80% 30.25 in 10.0 mi South 4.6 mph - N/A   Mostly Cloudy
9:55 PM 21.7 °F 14.3 °F 16.3 °F 80% 30.24 in 10.0 mi SSE 5.8 mph - N/A   Overcast
10:15 PM 22.1 °F 13.7 °F 16.7 °F 80% 30.23 in 10.0 mi SSE 6.9 mph - N/A   Overcast
10:35 PM 22.6 °F 16.5 °F 16.7 °F 78% 30.23 in 10.0 mi South 4.6 mph - N/A   Overcast
10:55 PM 23.0 °F 18.4 °F 16.7 °F 77% 30.22 in 10.0 mi SSE 3.5 mph - N/A   Overcast
11:15 PM 23.5 °F 19.1 °F 16.7 °F 75% 30.23 in 10.0 mi South 3.5 mph - N/A   Overcast
11:35 PM 23.9 °F 19.5 °F 16.9 °F 75% 30.22 in 10.0 mi South 3.5 mph - N/A   Overcast
11:55 PM 23.9 °F 19.5 °F 16.9 °F 75% 30.22 in 10.0 mi South 3.5 mph - N/A   Overcast